TimeCDT,TemperatureF,Dew PointF,Humidity,Sea Level PressureIn,VisibilityMPH,Wind Direction,Wind SpeedMPH,Gust SpeedMPH,PrecipitationIn,Events,Conditions,WindDirDegrees,DateUTC
12:15 AM,32.0,28.4,87,30.19,10.0,Calm,Calm,-,N/A,,Overcast,0,2012-11-03 05:15:00
12:35 AM,32.0,28.4,87,30.19,10.0,North,3.5,-,N/A,,Mostly Cloudy,360,2012-11-03 05:35:00
12:55 AM,32.0,26.6,80,30.19,10.0,North,5.8,-,N/A,,Scattered Clouds,10,2012-11-03 05:55:00
1:15 AM,32.0,26.6,80,30.19,10.0,North,4.6,-,N/A,,Clear,10,2012-11-03 06:15:00
1:35 AM,30.2,26.6,86,30.19,10.0,NNW,4.6,-,N/A,,Clear,340,2012-11-03 06:35:00
1:55 AM,30.2,26.6,86,30.19,10.0,Calm,Calm,-,N/A,,Clear,0,2012-11-03 06:55:00
2:15 AM,32.0,26.6,80,30.19,10.0,WNW,3.5,-,N/A,,Clear,300,2012-11-03 07:15:00
2:35 AM,28.4,24.8,86,30.20,10.0,WNW,3.5,-,N/A,,Clear,290,2012-11-03 07:35:00
2:55 AM,30.2,26.6,86,30.19,10.0,Calm,Calm,-,N/A,,Clear,0,2012-11-03 07:55:00
3:15 AM,30.2,24.8,80,30.19,10.0,Calm,Calm,-,N/A,,Scattered Clouds,0,2012-11-03 08:15:00
3:35 AM,30.2,24.8,80,30.19,10.0,North,5.8,-,N/A,,Scattered Clouds,360,2012-11-03 08:35:00
3:55 AM,30.2,24.8,80,30.18,10.0,Calm,Calm,-,N/A,,Scattered Clouds,0,2012-11-03 08:55:00
4:15 AM,30.2,24.8,80,30.18,10.0,Calm,Calm,-,N/A,,Scattered Clouds,0,2012-11-03 09:15:00
4:35 AM,30.2,24.8,80,30.18,10.0,North,5.8,-,N/A,,Clear,10,2012-11-03 09:35:00
4:55 AM,30.2,26.6,86,30.18,10.0,North,5.8,-,N/A,,Clear,360,2012-11-03 09:55:00
5:15 AM,30.2,24.8,80,30.18,10.0,North,4.6,-,N/A,,Scattered Clouds,10,2012-11-03 10:15:00
5:35 AM,30.2,24.8,80,30.19,10.0,North,6.9,-,N/A,,Scattered Clouds,350,2012-11-03 10:35:00
5:55 AM,30.2,26.6,86,30.19,10.0,NNW,4.6,-,N/A,,Clear,340,2012-11-03 10:55:00
6:15 AM,30.2,26.6,86,30.19,10.0,North,6.9,-,N/A,,Clear,350,2012-11-03 11:15:00
6:35 AM,30.2,26.6,86,30.19,10.0,North,8.1,-,N/A,,Clear,360,2012-11-03 11:35:00
6:45 AM,30.2,24.8,80,30.19,10.0,North,8.1,-,N/A,,Clear,350,2012-11-03 11:45:00
6:55 AM,30.2,26.6,86,30.20,10.0,North,8.1,-,N/A,,Clear,350,2012-11-03 11:55:00
7:45 AM,28.4,24.8,86,30.22,10.0,West,5.8,-,N/A,,Clear,280,2012-11-03 12:45:00
8:45 AM,32.0,26.6,80,30.24,10.0,NNW,3.5,-,N/A,,Mostly Cloudy,330,2012-11-03 13:45:00
9:45 AM,35.6,28.4,75,30.24,10.0,North,5.8,-,N/A,,Mostly Cloudy,350,2012-11-03 14:45:00
10:45 AM,37.4,28.4,70,30.24,10.0,North,4.6,-,N/A,,Overcast,360,2012-11-03 15:45:00
11:45 AM,39.2,28.4,65,30.24,10.0,Calm,Calm,-,N/A,,Mostly Cloudy,0,2012-11-03 16:45:00
12:45 PM,39.2,26.6,61,30.23,10.0,North,4.6,-,N/A,,Mostly Cloudy,360,2012-11-03 17:45:00
1:45 PM,41.0,26.6,57,30.21,10.0,North,5.8,-,N/A,,Overcast,360,2012-11-03 18:45:00
2:45 PM,41.0,26.6,57,30.20,10.0,North,8.1,-,N/A,,Clear,350,2012-11-03 19:45:00
3:50 PM,42.8,26.6,53,30.20,10.0,Calm,Calm,-,N/A,,Clear,0,2012-11-03 20:50:00
4:50 PM,41.0,26.6,57,30.20,10.0,NE,5.8,-,N/A,,Scattered Clouds,40,2012-11-03 21:50:00
5:45 PM,39.2,30.2,70,30.20,10.0,ENE,5.8,-,N/A,,Scattered Clouds,60,2012-11-03 22:45:00
6:45 PM,37.4,30.2,75,30.22,10.0,North,5.8,-,N/A,,Mostly Cloudy,360,2012-11-03 23:45:00
7:45 PM,35.6,24.8,65,30.23,10.0,NNW,5.8,-,N/A,,Scattered Clouds,340,2012-11-04 00:45:00
8:45 PM,35.6,24.8,65,30.22,10.0,North,5.8,-,N/A,,Mostly Cloudy,350,2012-11-04 01:45:00
9:15 PM,32.0,26.6,80,30.23,10.0,NNW,3.5,-,N/A,,Clear,330,2012-11-04 02:15:00
9:35 PM,32.0,26.6,80,30.23,10.0,Calm,Calm,-,N/A,,Scattered Clouds,0,2012-11-04 02:35:00
9:55 PM,32.0,24.8,75,30.23,10.0,North,3.5,-,N/A,,Scattered Clouds,350,2012-11-04 02:55:00
10:15 PM,32.0,26.6,80,30.23,10.0,NNW,3.5,-,N/A,,Clear,340,2012-11-04 03:15:00
10:35 PM,30.2,24.8,80,30.23,10.0,North,3.5,-,N/A,,Clear,350,2012-11-04 03:35:00
10:55 PM,32.0,26.6,80,30.23,10.0,Calm,Calm,-,N/A,,Clear,0,2012-11-04 03:55:00
11:15 PM,30.2,24.8,80,30.23,10.0,Calm,Calm,-,N/A,,Clear,0,2012-11-04 04:15:00
11:35 PM,32.0,26.6,80,30.22,10.0,Calm,Calm,-,N/A,,Clear,0,2012-11-04 04:35:00